Theta_e
344 343 342 343 342 341 341 334 330 330 330 334 337 332 329 331 332 336 337 338 338 335 335 336 334 337 336 328 334 337 324 325 336 332 332 331 326 331 329 325 325 330 336
344 343 343 343 341 340 341 340 336 332 332 335 336 332 329 330 331 332 337 338 339 338 340 339 339 328 328 325 326 324 322 326 334 337 333 327 339 341 329 322 329 332 329
341 342 343 341 340 338 339 340 339 337 335 337 335 332 330 329 331 331 333 334 335 339 336 340 339 324 324 329 324 332 327 326 327 324 325 332 337 341 335 323 323 328 341
334 339 340 339 336 335 338 339 339 337 336 336 335 333 331 334 333 332 331 334 335 335 337 338 332 324 333 327 328 339 339 338 340 331 331 328 337 333 330 330 324 321 338
334 336 337 334 333 334 336 336 336 336 336 336 336 337 335 332 331 332 330 333 339 335 340 331 325 330 331 336 341 341 342 342 343 342 338 331 322 329 330 323 319 319 331
333 333 332 332 332 333 335 335 336 336 337 336 339 340 339 338 334 335 337 333 334 335 334 328 324 332 331 336 338 340 341 342 342 339 339 334 335 326 327 332 331 334 335
336 334 333 332 332 332 334 335 336 337 337 337 338 339 338 340 340 340 338 339 332 336 334 326 324 324 332 333 340 341 341 344 344 339 339 340 339 336 335 329 334 336 330
342 337 335 333 333 333 333 334 335 338 338 337 338 337 338 338 339 339 339 339 335 338 336 327 325 327 325 328 335 340 343 342 341 340 340 341 338 327 324 335 332 326 326
348 346 339 337 335 335 333 333 334 336 338 338 337 337 338 337 337 337 340 339 338 333 338 329 331 329 324 328 339 340 343 345 343 341 342 343 338 325 323 326 326 322 327
349 342 339 337 337 337 336 334 335 336 339 339 338 338 337 337 338 338 338 338 339 338 338 332 331 327 326 330 341 340 343 345 344 344 343 345 339 332 325 323 323 325 323
348 343 343 338 337 337 338 337 336 337 339 339 339 339 339 338 338 337 339 339 338 338 339 330 337 327 327 330 333 338 337 343 346 343 343 346 342 337 327 325 324 324 325
352 351 347 341 335 335 337 338 338 338 337 338 337 337 340 340 339 343 344 342 341 339 337 338 331 334 329 331 338 337 337 343 345 344 345 345 343 343 336 327 326 325 324
351 351 350 349 339 334 335 335 336 336 337 336 340 345 342 338 341 344 345 344 343 343 337 337 338 336 330 334 336 337 340 339 344 344 345 346 344 344 341 334 329 325 325
350 346 350 349 345 338 343 339 344 344 335 339 344 345 342 337 339 344 344 345 345 345 340 336 339 338 339 331 339 343 343 339 343 345 343 344 343 342 343 341 335 336 332
348 347 349 350 349 343 343 348 348 346 339 340 346 345 341 335 340 345 344 343 344 345 341 340 344 343 343 337 343 342 344 344 346 347 344 344 344 344 344 343 340 338 340
348 348 349 349 349 348 345 349 349 348 349 347 346 343 342 339 337 340 344 343 344 346 345 343 345 346 345 345 344 344 344 345 345 347 346 346 345 345 344 344 343 339 340
349 349 348 349 349 349 348 347 349 342 343 350 349 349 345 341 337 339 339 345 342 345 346 345 344 346 344 346 346 344 344 345 345 345 346 347 347 346 345 344 344 344 342
349 349 349 349 350 350 350 346 350 341 346 344 348 347 345 345 344 344 344 340 343 344 346 346 343 344 345 345 344 344 344 344 344 345 344 343 344 346 347 344 344 345 344
348 349 349 349 351 351 350 346 347 346 344 345 345 345 345 345 345 344 344 344 340 344 344 343 344 342 342 346 344 342 344 343 343 344 344 344 344 343 343 347 347 344 345
349 349 349 350 351 352 351 344 344 347 347 345 339 340 345 347 347 346 346 345 344 340 343 343 344 339 340 341 344 345 344 344 343 342 343 343 344 345 347 346 345 347 347
349 349 350 350 351 352 350 351 350 349 347 341 343 346 347 348 347 347 343 344 342 341 340 342 341 341 342 342 344 344 342 343 343 343 343 343 344 345 345 346 345 345 346
349 349 350 351 351 352 351 351 352 351 348 348 342 344 349 349 348 347 342 342 341 341 344 342 340 342 343 343 343 343 343 344 342 340 341 342 344 344 345 344 344 345 345
350 350 351 351 351 352 353 353 355 355 351 349 343 342 344 348 347 345 343 342 342 341 343 342 341 339 341 344 344 343 341 339 341 343 342 343 343 344 344 344 341 344 342
349 350 351 351 351 353 353 352 353 351 351 345 344 342 342 348 346 344 343 341 342 341 341 341 342 339 338 338 340 341 340 341 342 339 340 342 344 344 342 338 341 339 340
349 351 352 351 352 354 354 346 345 354 339 348 346 344 346 348 348 346 344 344 340 341 341 343 340 339 339 339 339 339 338 341 342 340 339 340 340 343 342 339 342 344 343
350 352 352 352 353 356 354 348 341 339 348 349 349 351 350 348 349 346 344 343 343 341 340 340 340 340 340 340 340 341 341 342 342 342 342 343 344 343 341 342 341 339 338
Wind_Speed
20 20 20 18 17 16 16 16 16 16 15 14 13 13 14 14 15 15 14 13 13 13 14 12 13 13 13 12 12 11 9 10 11 12 14 15 15 15 16 13 14 16 15
22 22 21 19 16 15 16 16 16 15 14 13 12 13 13 13 14 14 14 13 13 13 12 11 11 12 13 14 15 15 15 15 14 13 14 15 15 16 15 13 14 15 14
22 22 21 18 16 15 15 15 15 15 14 13 12 12 13 14 14 13 13 12 12 13 12 13 10 12 16 17 17 18 20 18 17 13 13 12 14 12 12 11 12 13 15
22 22 20 18 16 16 16 16 16 15 14 13 12 12 12 13 13 12 11 11 12 13 14 12 10 15 19 18 20 20 19 21 19 19 13 9 10 12 9 12 12 14 14
23 21 20 18 17 17 16 14 14 14 13 12 11 12 12 12 12 11 12 12 11 12 12 10 11 16 20 21 23 22 18 14 11 12 12 10 7 8 9 12 12 15 13
20 19 18 18 18 18 17 15 14 13 13 12 11 11 11 11 10 11 10 11 11 11 10 8 12 17 21 23 18 17 14 12 11 9 10 10 9 6 8 11 12 12 12
19 18 17 17 17 17 16 15 14 13 13 12 11 11 10 10 10 9 9 10 10 10 8 9 13 16 20 22 21 17 14 12 10 10 12 7 5 2 5 8 10 10 9
16 18 18 17 16 16 17 16 14 13 13 12 10 10 10 10 9 9 8 9 9 10 9 10 13 15 19 22 19 17 16 11 8 11 9 6 4 2 3 6 7 7 8
15 14 16 17 16 16 16 16 15 14 13 12 11 10 10 8 7 8 8 7 9 9 10 11 12 14 17 20 21 17 16 12 7 8 7 4 1 2 3 5 6 7 8
14 15 15 16 16 16 16 16 14 13 13 13 11 10 11 10 8 7 8 9 7 8 9 10 11 13 16 20 21 18 16 13 8 8 4 5 5 2 2 4 5 6 7
17 15 10 14 15 14 14 14 14 14 13 10 10 9 9 9 10 9 8 8 9 8 7 9 11 12 16 18 17 18 13 12 7 6 1 5 8 2 2 4 5 5 7
19 16 11 10 14 16 16 15 14 13 11 11 10 9 6 7 10 13 10 9 8 8 9 8 10 11 14 16 15 15 14 14 8 6 1 6 8 3 2 3 4 6 7
18 16 11 10 13 17 17 15 13 11 12 13 13 9 6 5 12 14 12 10 9 8 10 11 10 10 11 15 16 14 10 12 9 4 2 5 8 3 2 3 3 5 7
21 15 14 12 11 15 18 15 9 5 13 14 11 8 6 6 10 12 14 11 9 8 10 11 9 11 12 14 16 13 11 11 9 4 5 5 4 4 2 2 5 5 6
22 18 17 15 10 10 15 14 8 4 8 15 11 9 7 4 8 9 11 12 12 10 10 14 13 10 11 15 16 13 11 11 8 2 6 6 5 6 4 4 5 7 7
26 22 19 18 13 11 11 11 9 8 9 11 11 10 13 11 4 9 14 15 14 14 14 13 14 13 12 13 12 11 9 8 9 6 8 9 9 10 10 7 6 9 10
28 22 22 20 17 14 12 15 17 14 13 15 15 15 15 17 18 13 14 17 17 15 16 13 13 14 14 14 11 10 8 12 11 11 10 10 11 10 11 9 10 10 10
29 28 20 22 20 18 16 21 21 12 18 16 19 19 15 14 15 17 18 18 19 21 19 18 14 15 15 14 13 13 12 12 13 13 13 16 18 12 15 13 13 14 13
32 30 24 21 24 22 19 23 27 20 18 16 20 19 18 16 15 16 17 19 23 23 24 21 19 19 18 20 17 16 15 16 14 14 15 16 15 16 18 15 15 18 17
36 31 25 21 24 22 19 21 21 17 14 18 17 20 18 15 15 17 18 19 25 28 25 24 23 22 20 21 18 17 17 18 16 16 17 15 17 17 18 18 19 19 18
38 33 28 25 24 23 21 21 19 15 15 8 13 14 18 16 14 16 15 17 25 28 28 25 21 21 20 22 21 21 21 19 19 17 18 20 22 22 22 24 24 23 23
41 36 30 27 24 25 22 18 17 14 14 15 12 17 19 16 14 14 13 16 23 27 25 25 22 20 19 19 19 16 13 16 18 18 21 23 22 22 22 22 22 24 25
43 41 34 28 25 24 20 18 19 19 20 18 17 19 16 13 13 13 12 13 21 27 28 25 21 19 16 16 16 11 6 8 8 9 8 11 16 19 21 19 20 21 24
46 41 35 29 27 25 20 17 20 20 19 18 18 17 13 13 11 10 9 9 17 25 25 22 22 21 20 18 17 16 16 13 8 6 8 7 10 15 8 10 13 12 15
46 43 38 31 29 25 22 18 16 19 15 11 11 14 15 17 15 12 9 8 11 19 20 20 20 21 21 21 23 23 19 17 17 17 13 15 13 11 10 8 11 13 15
45 42 39 34 31 25 24 21 19 16 14 15 14 18 17 18 19 16 12 10 10 13 16 16 16 19 19 17 15 18 20 18 15 14 15 15 15 14 12 12 13 14 14
Wind_Direction
165 156 153 156 147 141 139 140 143 144 142 132 125 120 122 127 130 129 128 130 133 128 127 117 112 118 119 113 125 119 114 120 115 120 121 122 123 123 113 110 118 124 121
163 157 157 157 152 146 143 143 143 144 142 135 129 123 121 125 129 131 128 124 125 131 127 118 112 119 112 120 118 116 114 116 119 123 129 132 127 128 115 106 119 119 124
165 158 158 158 157 153 150 145 144 144 143 139 132 123 123 122 126 126 124 125 127 130 123 124 122 116 118 120 119 123 117 111 116 121 132 123 128 124 119 111 122 128 126
166 161 158 160 160 158 157 153 150 149 146 139 133 125 123 123 125 126 124 124 125 127 127 128 127 122 125 123 123 122 129 129 112 108 113 94 117 128 116 122 127 135 131
164 162 161 161 162 161 159 157 155 152 148 141 135 132 129 128 125 127 126 127 125 128 129 127 128 130 130 131 130 125 121 129 120 112 92 85 118 132 122 128 131 139 134
157 161 163 165 166 163 163 161 157 156 153 145 139 138 139 133 133 132 128 131 132 133 136 136 134 138 138 142 141 131 126 124 116 127 103 98 79 114 125 130 132 134 134
150 161 166 168 168 166 164 163 160 158 155 152 147 140 136 136 134 135 145 133 140 138 135 138 137 142 143 151 145 137 130 128 137 128 110 94 34 108 131 138 144 144 146
150 161 166 170 171 172 169 166 166 164 160 158 152 149 148 141 139 142 145 151 146 147 144 143 143 145 146 155 160 148 141 141 117 139 136 126 30 90 157 160 158 159 160
170 175 174 171 178 177 178 175 172 170 166 166 165 160 163 160 155 157 153 154 158 157 154 151 151 152 154 158 162 152 154 133 126 156 155 191 193 106 165 188 179 173 173
173 172 172 177 183 187 184 182 178 176 177 178 178 174 172 174 175 172 171 161 163 169 166 160 161 160 157 157 167 166 161 150 142 140 155 198 202 188 175 195 197 188 185
174 173 173 184 186 192 190 187 186 186 188 182 181 188 188 191 186 188 179 172 161 172 181 177 175 168 166 165 169 176 179 165 161 135 177 190 204 218 205 208 208 212 204
184 185 174 181 197 196 195 194 192 196 184 185 187 181 187 210 206 184 181 175 170 171 181 190 184 181 176 172 171 177 176 177 180 184 268 274 216 208 226 224 222 228 225
193 189 191 189 206 201 196 190 192 198 195 191 188 187 205 246 215 214 193 196 191 193 188 190 192 187 184 177 176 165 165 183 188 200 53 166 199 238 212 233 245 247 245
198 204 202 192 186 205 201 186 173 220 203 194 196 197 210 293 235 224 204 205 205 216 203 191 192 195 190 185 173 180 176 168 180 199 196 241 248 256 252 270 260 261 267
208 208 208 198 202 192 185 192 195 189 216 215 225 230 227 338 210 204 219 210 216 209 200 182 170 167 182 190 195 197 191 187 203 196 232 240 256 257 261 275 269 258 267
207 210 210 208 214 214 206 194 195 218 230 228 229 235 240 245 265 229 225 226 223 227 215 201 194 186 187 194 212 215 211 217 222 252 248 255 265 269 263 271 272 254 260
206 207 213 214 216 218 215 219 202 216 220 234 241 245 240 240 252 243 233 236 233 219 210 205 209 205 202 209 213 220 218 215 221 235 245 253 262 258 256 264 268 268 259
204 205 213 216 219 221 230 234 218 219 229 241 238 243 235 236 248 246 245 240 236 228 216 215 219 223 218 206 209 219 217 218 228 235 256 259 261 270 259 258 263 262 270
205 207 211 217 219 216 225 229 233 236 242 243 252 252 250 242 243 248 246 246 230 228 221 222 222 225 222 216 217 211 227 230 227 223 244 256 262 258 267 257 261 255 261
203 209 214 214 217 220 224 220 226 231 232 245 243 244 244 245 248 252 259 248 228 221 223 224 228 225 227 222 227 225 230 230 227 229 238 237 252 252 255 259 255 248 252
201 203 213 212 215 216 216 219 228 240 231 250 246 245 240 245 253 257 266 246 220 217 219 221 218 217 224 219 226 235 239 236 237 240 249 252 248 253 260 267 259 256 240
203 203 210 217 220 219 226 232 236 247 250 250 247 241 240 251 255 271 269 239 218 210 210 208 210 211 213 214 222 231 231 238 249 253 252 254 254 257 262 261 260 250 253
204 203 207 216 219 225 228 231 239 244 251 253 249 244 246 250 263 262 263 233 216 212 214 212 214 215 216 217 223 224 215 230 218 237 247 252 247 252 256 263 265 254 259
207 204 205 214 219 222 223 232 246 256 260 262 260 240 245 251 256 256 246 235 219 214 213 219 224 222 223 226 229 227 238 251 240 242 250 238 249 243 250 251 266 262 236
206 202 204 212 216 218 218 223 240 244 248 232 232 239 245 246 247 252 234 227 205 205 207 216 219 220 225 231 240 242 249 247 244 245 258 260 254 230 248 237 254 242 252
205 201 202 208 213 216 219 217 233 229 216 220 237 240 238 248 241 246 237 222 202 201 209 216 224 227 230 232 231 232 235 235 239 240 257 251 255 252 235 241 248 250 257